Time,TemperatureF,DewpointF,PressureIn,WindDirection,WindDirectionDegrees,WindSpeedMPH,WindSpeedGustMPH,Humidity,HourlyPrecipIn,Conditions,Clouds,dailyrainin,SoftwareType,DateUTC
2014-09-17 00:09:00,69.4,51.5,29.97,SSE,167,0.0,0.0,53,0.00,,,0.00,Wunderground v.1.15,2014-09-17 05:09:00,
2014-09-17 00:14:00,69.3,51.4,29.97,SSE,167,0.0,0.0,53,0.00,,,0.00,Wunderground v.1.15,2014-09-17 05:14:00,
2014-09-17 00:20:00,69.2,51.3,29.97,SSE,167,0.0,0.0,53,0.00,,,0.00,Wunderground v.1.15,2014-09-17 05:20:00,
2014-09-17 00:30:00,68.9,51.1,29.97,SSE,167,0.0,0.0,53,0.00,,,0.00,Wunderground v.1.15,2014-09-17 05:30:00,
2014-09-17 00:40:00,68.8,51.0,29.97,SSE,167,0.0,0.0,53,0.00,,,0.00,Wunderground v.1.15,2014-09-17 05:40:00,
2014-09-17 00:50:00,68.6,50.8,29.97,SSE,168,0.0,0.0,53,0.00,,,0.00,Wunderground v.1.15,2014-09-17 05:50:00,
2014-09-17 01:00:00,68.5,50.2,29.97,SSE,167,0.0,0.0,52,0.00,,,0.00,Wunderground v.1.15,2014-09-17 06:00:00,
2014-09-17 01:05:00,68.5,50.2,29.97,SSE,168,0.0,0.0,52,0.00,,,0.00,Wunderground v.1.15,2014-09-17 06:05:00,
2014-09-17 01:15:00,68.3,50.5,29.96,SSE,168,0.0,0.0,53,0.00,,,0.00,Wunderground v.1.15,2014-09-17 06:15:00,
2014-09-17 01:25:00,68.1,49.8,29.96,SSE,167,0.0,0.0,52,0.00,,,0.00,Wunderground v.1.15,2014-09-17 06:25:00,
2014-09-17 01:35:00,68.0,49.7,29.96,SSE,167,0.0,0.0,52,0.00,,,0.00,Wunderground v.1.15,2014-09-17 06:35:00,
2014-09-17 01:45:00,67.9,49.6,29.96,SSE,168,0.0,0.0,52,0.00,,,0.00,Wunderground v.1.15,2014-09-17 06:45:00,
2014-09-17 01:55:00,67.7,49.4,29.95,SSE,168,0.0,0.0,52,0.00,,,0.00,Wunderground v.1.15,2014-09-17 06:55:00,
2014-09-17 02:04:00,67.9,49.1,29.95,SSE,167,0.0,0.0,51,0.00,,,0.00,Wunderground v.1.15,2014-09-17 07:04:00,
2014-09-17 02:14:00,67.8,49.5,29.95,SSE,167,0.0,0.0,52,0.00,,,0.00,Wunderground v.1.15,2014-09-17 07:14:00,
2014-09-17 02:19:00,67.7,49.4,29.95,SSE,167,0.0,0.0,52,0.00,,,0.00,Wunderground v.1.15,2014-09-17 07:19:00,
2014-09-17 02:24:00,67.6,49.3,29.95,SSE,167,0.0,0.0,52,0.00,,,0.00,Wunderground v.1.15,2014-09-17 07:24:00,
2014-09-17 02:29:00,67.6,49.3,29.94,SSE,167,0.0,0.0,52,0.00,,,0.00,Wunderground v.1.15,2014-09-17 07:29:00,
2014-09-17 02:34:00,67.8,49.0,29.94,SSE,167,0.0,0.0,51,0.00,,,0.00,Wunderground v.1.15,2014-09-17 07:34:00,
2014-09-17 02:44:00,67.7,48.9,29.94,SSE,168,0.0,0.0,51,0.00,,,0.00,Wunderground v.1.15,2014-09-17 07:44:00,
2014-09-17 02:54:00,67.5,49.3,29.94,SSE,167,0.0,0.0,52,0.00,,,0.00,Wunderground v.1.15,2014-09-17 07:54:00,
2014-09-17 03:04:00,67.2,49.0,29.94,SSE,167,0.0,0.0,52,0.00,,,0.00,Wunderground v.1.15,2014-09-17 08:04:00,
2014-09-17 03:10:00,67.1,48.9,29.94,SSE,167,0.0,0.0,52,0.00,,,0.00,Wunderground v.1.15,2014-09-17 08:10:00,
2014-09-17 03:20:00,66.9,48.7,29.94,SSE,168,0.0,0.0,52,0.00,,,0.00,Wunderground v.1.15,2014-09-17 08:20:00,
2014-09-17 03:29:00,67.0,48.3,29.93,SSE,168,0.0,0.0,51,0.00,,,0.00,Wunderground v.1.15,2014-09-17 08:29:00,
2014-09-17 03:34:00,67.1,48.4,29.94,SSE,167,0.0,0.0,51,0.00,,,0.00,Wunderground v.1.15,2014-09-17 08:34:00,
2014-09-17 03:40:00,67.1,48.4,29.93,SSE,167,0.0,0.0,51,0.00,,,0.00,Wunderground v.1.15,2014-09-17 08:40:00,
2014-09-17 03:50:00,67.1,48.4,29.94,SSE,167,0.0,0.0,51,0.00,,,0.00,Wunderground v.1.15,2014-09-17 08:50:00,
2014-09-17 03:55:00,67.0,48.3,29.94,SSE,167,0.0,0.0,51,0.00,,,0.00,Wunderground v.1.15,2014-09-17 08:55:00,
2014-09-17 04:05:00,66.8,48.6,29.94,SSE,167,0.0,0.0,52,0.00,,,0.00,Wunderground v.1.15,2014-09-17 09:05:00,
2014-09-17 04:15:00,66.7,48.5,29.94,SSE,168,0.0,0.0,52,0.00,,,0.00,Wunderground v.1.15,2014-09-17 09:15:00,
2014-09-17 04:25:00,66.7,48.0,29.94,SSE,168,0.0,0.0,51,0.00,,,0.00,Wunderground v.1.15,2014-09-17 09:25:00,
2014-09-17 04:35:00,66.6,48.4,29.94,SSE,167,0.0,0.0,52,0.00,,,0.00,Wunderground v.1.15,2014-09-17 09:35:00,
2014-09-17 04:45:00,66.8,48.1,29.94,SSE,168,0.0,0.0,51,0.00,,,0.00,Wunderground v.1.15,2014-09-17 09:45:00,
2014-09-17 04:55:00,67.0,48.8,29.94,SSE,167,0.0,0.0,52,0.00,,,0.00,Wunderground v.1.15,2014-09-17 09:55:00,
2014-09-17 05:04:00,67.0,48.8,29.94,SSE,167,0.0,0.0,52,0.00,,,0.00,Wunderground v.1.15,2014-09-17 10:04:00,
2014-09-17 05:09:00,67.0,48.8,29.94,SSE,167,0.0,0.0,52,0.00,,,0.00,Wunderground v.1.15,2014-09-17 10:09:00,
2014-09-17 05:14:00,67.2,49.0,29.94,SSE,167,0.0,0.0,52,0.00,,,0.00,Wunderground v.1.15,2014-09-17 10:14:00,
2014-09-17 05:24:00,67.2,49.0,29.94,SSE,167,0.0,0.0,52,0.00,,,0.00,Wunderground v.1.15,2014-09-17 10:24:00,
2014-09-17 05:34:00,67.9,49.6,29.94,ESE,103,0.0,0.0,52,0.00,,,0.00,Wunderground v.1.15,2014-09-17 10:34:00,
2014-09-17 05:44:00,68.2,49.9,29.94,ESE,103,0.0,0.0,52,0.00,,,0.00,Wunderground v.1.15,2014-09-17 10:44:00,
2014-09-17 05:54:00,68.3,50.0,29.94,East,98,0.0,0.0,52,0.00,,,0.00,Wunderground v.1.15,2014-09-17 10:54:00,
2014-09-17 05:59:00,68.3,50.0,29.94,ESE,109,0.0,0.0,52,0.00,,,0.00,Wunderground v.1.15,2014-09-17 10:59:00,
2014-09-17 06:04:00,68.3,50.0,29.94,East,91,0.0,2.0,52,0.00,,,0.00,Wunderground v.1.15,2014-09-17 11:04:00,
2014-09-17 06:14:00,68.4,50.1,29.94,ESE,105,0.0,1.0,52,0.00,,,0.00,Wunderground v.1.15,2014-09-17 11:14:00,
2014-09-17 06:24:00,68.5,50.2,29.95,ESE,108,0.0,0.0,52,0.00,,,0.00,Wunderground v.1.15,2014-09-17 11:24:00,
2014-09-17 06:34:00,68.6,50.8,29.95,East,82,1.0,1.0,53,0.00,,,0.00,Wunderground v.1.15,2014-09-17 11:34:00,
2014-09-17 06:40:00,68.7,51.4,29.95,East,95,1.0,1.0,54,0.00,,,0.00,Wunderground v.1.15,2014-09-17 11:40:00,
2014-09-17 06:50:00,68.8,52.0,29.95,East,101,0.0,1.0,55,0.00,,,0.00,Wunderground v.1.15,2014-09-17 11:50:00,
2014-09-17 07:00:00,68.9,52.6,29.95,ESE,108,1.0,1.0,56,0.00,,,0.00,Wunderground v.1.15,2014-09-17 12:00:00,
2014-09-17 07:05:00,68.9,52.6,29.95,ESE,113,1.0,1.0,56,0.00,,,0.00,Wunderground v.1.15,2014-09-17 12:05:00,
2014-09-17 07:15:00,69.0,52.6,29.95,East,89,1.0,1.0,56,0.00,,,0.00,Wunderground v.1.15,2014-09-17 12:15:00,
2014-09-17 07:25:00,69.0,53.1,29.96,SSW,208,1.0,1.0,57,0.00,,,0.00,Wunderground v.1.15,2014-09-17 12:25:00,
2014-09-17 07:35:00,69.0,53.6,29.96,East,91,1.0,2.0,58,0.00,,,0.00,Wunderground v.1.15,2014-09-17 12:35:00,
2014-09-17 07:39:00,69.0,53.6,29.96,SE,127,1.0,1.0,58,0.00,,,0.00,Wunderground v.1.15,2014-09-17 12:39:00,
2014-09-17 07:45:00,69.1,53.7,29.96,SE,145,1.0,1.0,58,0.00,,,0.00,Wunderground v.1.15,2014-09-17 12:45:00,
2014-09-17 07:55:00,69.2,54.3,29.96,East,85,0.0,0.0,59,0.00,,,0.00,Wunderground v.1.15,2014-09-17 12:55:00,
2014-09-17 08:05:00,69.2,54.7,29.96,ESE,104,1.0,3.0,60,0.00,,,0.00,Wunderground v.1.15,2014-09-17 13:05:00,
2014-09-17 08:15:00,69.3,54.4,29.96,ESE,114,1.0,1.0,59,0.00,,,0.00,Wunderground v.1.15,2014-09-17 13:15:00,
2014-09-17 08:25:00,69.6,55.1,29.96,East,85,0.0,0.0,60,0.00,,,0.00,Wunderground v.1.15,2014-09-17 13:25:00,
2014-09-17 08:34:00,69.9,57.2,29.96,East,91,1.0,1.0,64,0.00,,,0.00,Wunderground v.1.15,2014-09-17 13:34:00,
2014-09-17 08:44:00,70.0,58.1,29.96,ESE,113,1.0,1.0,66,0.00,,,0.00,Wunderground v.1.15,2014-09-17 13:44:00,
2014-09-17 08:54:00,70.1,60.3,29.96,East,89,1.0,1.0,71,0.00,,,0.00,Wunderground v.1.15,2014-09-17 13:54:00,
2014-09-17 09:04:00,70.5,60.2,29.96,SSE,156,1.0,1.0,70,0.00,,,0.00,Wunderground v.1.15,2014-09-17 14:04:00,
2014-09-17 09:14:00,70.8,62.9,29.96,ESE,105,1.0,2.0,76,0.00,,,0.00,Wunderground v.1.15,2014-09-17 14:14:00,
2014-09-17 09:24:00,71.4,63.1,29.96,SSW,205,0.0,1.0,75,0.00,,,0.00,Wunderground v.1.15,2014-09-17 14:24:00,
2014-09-17 09:34:00,71.8,66.0,29.96,ESE,102,1.0,1.0,82,0.00,,,0.00,Wunderground v.1.15,2014-09-17 14:34:00,
2014-09-17 09:44:00,72.5,66.7,29.96,ESE,120,0.0,1.0,82,0.00,,,0.00,Wunderground v.1.15,2014-09-17 14:44:00,
2014-09-17 09:54:00,73.1,68.0,29.96,East,86,1.0,2.0,84,0.00,,,0.00,Wunderground v.1.15,2014-09-17 14:54:00,
2014-09-17 10:04:00,73.9,68.4,29.96,East,80,0.0,2.0,83,0.00,,,0.00,Wunderground v.1.15,2014-09-17 15:04:00,
2014-09-17 10:10:00,74.1,69.0,29.96,East,89,0.0,1.0,84,0.00,,,0.00,Wunderground v.1.15,2014-09-17 15:10:00,
2014-09-17 10:20:00,74.4,69.2,29.95,East,84,0.0,0.0,84,0.00,,,0.00,Wunderground v.1.15,2014-09-17 15:20:00,
2014-09-17 10:30:00,75.5,70.0,29.95,ESE,105,0.0,0.0,83,0.00,,,0.00,Wunderground v.1.15,2014-09-17 15:30:00,
2014-09-17 10:34:00,75.5,70.0,29.95,East,98,1.0,1.0,83,0.00,,,0.00,Wunderground v.1.15,2014-09-17 15:34:00,
2014-09-17 10:44:00,76.3,70.0,29.95,East,98,0.0,1.0,81,0.00,,,0.00,Wunderground v.1.15,2014-09-17 15:44:00,
2014-09-17 10:54:00,77.6,70.6,29.95,WNW,293,0.0,1.0,79,0.00,,,0.00,Wunderground v.1.15,2014-09-17 15:54:00,
2014-09-17 11:00:00,78.0,70.2,29.95,ENE,64,1.0,2.0,77,0.00,,,0.00,Wunderground v.1.15,2014-09-17 16:00:00,
2014-09-17 11:05:00,78.6,70.4,29.95,South,185,1.0,2.0,76,0.00,,,0.00,Wunderground v.1.15,2014-09-17 16:05:00,
2014-09-17 11:15:00,79.6,70.2,29.95,East,96,1.0,1.0,73,0.00,,,0.00,Wunderground v.1.15,2014-09-17 16:15:00,
2014-09-17 11:25:00,80.5,71.0,29.94,SE,127,0.0,1.0,73,0.00,,,0.00,Wunderground v.1.15,2014-09-17 16:25:00,
2014-09-17 11:34:00,81.5,70.8,29.94,ESE,115,1.0,1.0,70,0.00,,,0.00,Wunderground v.1.15,2014-09-17 16:34:00,
2014-09-17 11:44:00,82.7,72.3,29.95,SSW,204,0.0,3.0,71,0.00,,,0.00,Wunderground v.1.15,2014-09-17 16:44:00,
2014-09-17 11:54:00,83.0,71.3,29.94,NW,309,0.0,0.0,68,0.00,,,0.00,Wunderground v.1.15,2014-09-17 16:54:00,
2014-09-17 12:04:00,83.5,70.5,29.94,West,264,1.0,2.0,65,0.00,,,0.00,Wunderground v.1.15,2014-09-17 17:04:00,
2014-09-17 12:19:00,84.2,70.7,29.94,WNW,300,1.0,1.0,64,0.00,,,0.00,Wunderground v.1.15,2014-09-17 17:19:00,
2014-09-17 12:24:00,84.3,70.8,29.93,SE,134,1.0,1.0,64,0.00,,,0.00,Wunderground v.1.15,2014-09-17 17:24:00,
2014-09-17 12:34:00,85.0,71.0,29.93,SE,143,1.0,2.0,63,0.00,,,0.00,Wunderground v.1.15,2014-09-17 17:34:00,
2014-09-17 12:44:00,84.9,70.9,29.93,North,350,1.0,3.0,63,0.00,,,0.00,Wunderground v.1.15,2014-09-17 17:44:00,
2014-09-17 12:54:00,84.9,70.4,29.93,NE,36,1.0,3.0,62,0.00,,,0.00,Wunderground v.1.15,2014-09-17 17:54:00,
2014-09-17 13:04:00,85.1,71.1,29.92,SSW,207,1.0,2.0,63,0.00,,,0.00,Wunderground v.1.15,2014-09-17 18:04:00,
2014-09-17 13:14:00,86.4,71.4,29.92,SW,236,1.0,1.0,61,0.00,,,0.00,Wunderground v.1.15,2014-09-17 18:14:00,
2014-09-17 13:24:00,86.7,71.2,29.91,SSW,204,1.0,1.0,60,0.00,,,0.00,Wunderground v.1.15,2014-09-17 18:24:00,
2014-09-17 13:34:00,86.8,71.7,29.91,SSW,198,1.0,1.0,61,0.00,,,0.00,Wunderground v.1.15,2014-09-17 18:34:00,
2014-09-17 13:39:00,87.3,70.7,29.91,SSW,194,0.0,0.0,58,0.00,,,0.00,Wunderground v.1.15,2014-09-17 18:39:00,
2014-09-17 13:45:00,87.5,70.4,29.91,WNW,294,0.0,1.0,57,0.00,,,0.00,Wunderground v.1.15,2014-09-17 18:45:00,
2014-09-17 13:55:00,87.2,70.6,29.90,SSW,210,1.0,1.0,58,0.00,,,0.00,Wunderground v.1.15,2014-09-17 18:55:00,
2014-09-17 14:05:00,87.7,70.1,29.90,SSW,203,1.0,1.0,56,0.00,,,0.00,Wunderground v.1.15,2014-09-17 19:05:00,
2014-09-17 14:15:00,88.4,69.6,29.89,WNW,296,1.0,1.0,54,0.00,,,0.00,Wunderground v.1.15,2014-09-17 19:15:00,
2014-09-17 14:24:00,88.4,70.2,29.89,SSW,204,1.0,1.0,55,0.00,,,0.00,Wunderground v.1.15,2014-09-17 19:24:00,
2014-09-17 14:34:00,89.3,71.5,29.89,WSW,253,0.0,0.0,56,0.00,,,0.00,Wunderground v.1.15,2014-09-17 19:34:00,
2014-09-17 14:44:00,89.4,70.0,29.89,SSW,211,1.0,2.0,53,0.00,,,0.00,Wunderground v.1.15,2014-09-17 19:44:00,
2014-09-17 14:54:00,89.3,71.0,29.89,ESE,120,1.0,2.0,55,0.00,,,0.00,Wunderground v.1.15,2014-09-17 19:54:00,